SCP
0 0 0 0 0 0 0 0 0 0 0 0 0 0 0 0 0 0 0 0 0 0 0 0 0 0 0 0 0 0 0 0 0 0 0 0 0 0 0 0 0 0 0 0
0 0 0 0 0 0 0 0 0 0 0 0 0 0 0 0 0 0 0 0 0 0 0 0 0 0 0 0 0 0 0 0 0 0 0 0 0 0 0 0 0 0 0 0
0 0 0 0 0 0 0 0 0 0 0 0 0 0 0 0 0 0 0 0 0 0 0 0 0 0 0 0 0 0 0 0 0 0 0 0 0 0 0 0 0 0 0 0
0 0 0 0 0 0 0 0 0 0 0 0 0 0 0 0 0 0 0 0 0 0 0 0 0 0 0 0 0 0 0 0 0 0 0 0 0 0 0 0 0 0 0 0
0 0 0 0 0 0 0 0 0 0 0 0 0 0 0 0 0 0 0 0 0 0 0 0 0 0 0 0 0 0 0 0 0 0 0 0 0 0 0 0 0 0 0 0
0 0 0 0 0 0 0 0 0 0 0 0 0 0 0 0 0 0 0 0 0 0 0 0 0 0 0 0 0 0 0 0 0 0 0 0 0 0 0 0 0 0 0 0
0 0 0 0 0 0 0 0 0 0 0 0 0 0 0 0 0 0 0 0 0 0 0 0 0 0 0 0 0 0 0 0 0 0 0 0 0 0 0 0 0 0 0 0
0 0 0 0 0 0 0 0 0 0 0 0 0 0 0 0 0 0 0 0 0 0 0 0 0 0 0 0 0 0 0 0 0 0 0 0 0 0 0 0 0 0 0 0
0 0 0 0 0 0 0 0 0 0 0 0 0 0 0 0 0 0 0 0 0 0 0 0 0 0 0 0 0 0 0 0 0 0 0 0 0 0 0 0 0 0 0 0
0 0 0 0 0 0 0 0 0 0 0 0 0 0 0 0 0 0 0 0 0 0 0 0 0 0 0 0 0 0 0 0 0 0 0 0 0 0 0 0 0 0 0 0
0 0 0 0 0 0 0 0 0 0 0 0 0 0 0 0 0 0 0 0 0 0 0 0 0 0 0 0 0 0 0 0 0 0 0 0 0 0 0 0 0 0 0 0
0 0 0 0 0 0 0 0 0 0 0 0 0 0 0 0 0 0 0 0 0 0 0 0 0 0 0 0 0 0 0 0 0 0 0 0 0 0 0 0 0 0 0 0
0 0 0 0 0 0 0 0 0 0 0 0 0 0 0 0 0 0 0 0 0 0 0 0 0 0 0 0 0 0 0 0 0 0 0 0 0 0 0 0 0 0 0 0
0 0 0 0 0 0 0 0 0 0 0 0 0 0 0 0 0 0 0 0 0 0 0 0 0 0 0 0 0 0 0 0 0 0 0 0 0 0 0 0 0 0 0 0
0 0 0 0 0 0 0 0 0 0 0 0 0 0 0 0 0 0 0 0 0 0 0 0 0 0 0 0 0 0 0 0 0 0 0 0 0 0 0 0 0 0 0 0
0 0 0 0 0 0 0 0 0 0 0 0 0 0 0 0 0 0 0 0 0 0 0 0 0 0 0 0 0 0 0 0 0 0 0 0 0 0 0 0 0 0 0 0
0 0 0 0 0 0 0 0 0 0 0 0 0 0 0 0 0 0 0 0 0 0 0 0 0 0 0 0 0 0 0 0 0 0 0 0 0 0 0 0 0 0 0 0
0 0 0 0 0 0 0 0 0 0 0 0 0 0 0 0 0 0 0 0 0 0 0 0 0 0 0 0 0 0 0 0 0 0 0 0 0 0 0 0 0 0 0 0
0 0 0 0 0 0 0 0 0 0 0 0 0 0 0 0 0 0 0 0 0 0 0 0 0 0 0 0 0 0 0 0 0 0 0 0 0 0 0 0 0 0 0 0
0 0 0 0 0 0 0 0 0 0 0 0 0 0 0 0 0 0 0 0 0 0 0 0 0 0 0 0 0 0 0 0 0 0 0 0 0 0 0 0 0 0 0 0
0 0 0 0 0 0 0 0 0 0 0 0 0 0 0 0 0 0 0 0 0 0 0 0 0 0 0 0 0 0 0 0 0 0 0 0 0 0 0 0 0 0 0 0
0 0 0 0 0 0 0 0 0 0 0 0 0 0 0 0 0 0 0 0 0 0 0 0 0 0 0 0 0 0 0 0 0 0 0 0 0 0 0 0 0 0 0 0
0 0 0 0 0 0 0 0 0 0 0 0 0 0 0 0 0 0 0 0 0 0 0 0 0 0 0 -0 0 0 0 0 0 0 0 0 0 0 0 0 0 0 0 0
0 0 0 0 0 0 0 0 0 0 0 0 0 0 0 0 0 0 0 0 0 0 0 0 0 0 -0 0 0 0 0 0 0 0 0 0 0 0 0 0 0 0 0 0
0 0 0 0 0 0 0 0 0 0 0 0 0 0 0 0 0 0 0 0 0 0 0 0 0 -0 -0 0 0 0 0 0 0 0 0 0 0 0 0 0 0 0 0 0
0 0 0 0 0 0 0 0 0 0 0 0 0 0 0 0 0 0 0 0 0 0 0 -0 -0 -0 -0 0 0 0 0 0 0 0 0 0 0 0 0 0 0 0 0 0
0 0 0 0 0 0 0 0 0 0 0 0 0 0 -0 0 0 0 0 0 0 0 0 -0 -0 -0 -0 0 0 0 0 0 0 0 0 0 0 0 0 0 0 0 0 0
Wind_Speed
5 5 4 5 6 5 7 7 8 7 6 6 8 10 11 11 11 10 8 7 6 5 4 4 4 5 5 6 6 6 7 8 7 7 7 8 9 8 8 9 9 8 9 9
3 3 3 5 7 5 5 5 5 4 5 1 6 9 10 11 12 11 9 7 6 5 5 4 4 4 5 5 5 5 7 7 7 7 8 8 8 8 9 9 8 9 9 9
4 5 4 5 5 3 3 2 4 6 4 7 8 11 12 12 11 10 9 8 7 6 5 4 3 4 4 4 4 5 6 6 6 7 7 7 8 9 8 8 8 9 8 9
2 4 4 6 2 2 2 3 3 2 3 7 7 7 6 7 10 10 9 9 7 6 5 4 3 3 4 4 5 5 5 5 5 6 7 7 8 8 7 6 7 7 7 7
2 1 6 6 2 0 1 4 1 4 7 8 10 7 4 4 7 8 9 8 7 6 5 5 4 4 5 5 5 5 5 5 5 6 6 6 7 7 5 6 7 6 6 7
3 2 4 4 4 2 1 4 1 5 10 11 9 5 4 7 8 9 8 7 7 6 6 5 4 4 5 5 5 4 4 5 5 5 6 6 6 6 5 6 6 7 7 7
3 3 6 4 6 2 1 5 1 5 9 10 5 3 7 11 9 9 9 8 8 7 6 5 5 5 5 5 4 4 5 5 5 5 6 6 5 5 6 6 7 7 7 7
2 3 6 4 4 1 3 2 1 5 7 7 7 9 11 11 11 11 10 9 8 7 6 5 5 6 5 4 3 4 6 6 6 5 5 5 6 6 6 6 7 6 6 6
5 6 4 2 3 4 2 1 2 5 7 10 10 10 11 10 11 10 10 8 7 8 7 5 4 5 5 3 4 6 6 6 5 6 5 5 5 6 5 5 5 4 4 5
4 5 4 4 2 2 1 1 3 6 10 10 10 12 11 11 10 9 8 8 7 8 7 5 4 5 4 4 5 6 6 5 5 6 5 5 4 4 4 4 4 4 4 3
4 5 4 3 3 3 4 6 8 8 8 11 14 13 12 11 10 9 8 7 7 7 6 5 4 4 4 5 6 6 6 5 5 5 5 5 5 4 3 2 2 3 3 2
5 3 2 3 2 2 4 6 9 11 9 9 11 13 12 10 8 8 8 7 7 6 6 5 5 4 4 4 6 7 5 4 4 4 4 4 4 5 9 6 5 5 5 4
4 2 1 2 1 2 4 7 9 10 11 12 9 11 11 9 8 8 8 8 7 6 6 5 4 4 4 4 5 6 6 5 4 4 4 3 3 4 4 6 8 7 5 4
4 2 2 1 2 5 8 10 10 10 10 10 10 10 10 9 9 9 8 7 6 6 6 5 5 4 3 5 5 6 5 5 4 3 3 3 3 3 3 3 3 3 4 3
5 4 4 4 6 8 10 11 12 11 10 10 9 10 10 10 9 8 7 7 7 6 5 5 5 4 4 5 6 6 5 4 3 3 3 3 3 3 3 3 3 1 1 2
0 4 7 9 10 10 11 11 11 10 10 9 9 9 9 9 8 7 7 7 8 6 5 5 4 4 4 5 5 4 4 6 5 4 3 3 3 3 2 2 2 1 0 0
4 6 7 8 9 9 9 9 10 11 10 10 10 9 10 9 8 7 6 6 6 6 5 5 4 4 5 5 5 4 3 4 6 4 3 3 3 2 2 2 1 1 1 1
8 8 9 12 12 10 9 9 10 10 10 9 11 10 10 10 9 7 7 6 5 4 3 4 4 4 4 5 4 4 4 3 3 3 3 2 2 2 2 2 2 1 1 1
6 8 8 9 11 11 10 10 10 9 9 11 11 10 9 8 8 7 7 7 6 5 4 3 6 5 4 5 5 4 4 4 3 2 2 3 3 2 2 2 2 2 1 1
5 8 9 9 10 10 11 10 10 10 9 10 10 9 8 7 8 8 7 6 5 5 5 5 5 4 4 4 5 3 4 4 3 3 2 2 2 2 2 2 2 2 2 2
6 9 11 11 10 10 11 12 12 11 10 10 11 10 9 8 8 8 6 4 3 4 5 7 5 4 4 4 5 3 3 3 3 3 3 3 3 2 2 2 2 2 2 2
5 8 11 11 11 9 9 10 11 12 11 10 9 9 9 8 7 6 5 4 5 7 5 4 4 5 5 5 3 3 3 3 3 3 3 3 3 3 3 3 3 3 3 3
5 7 10 11 11 10 10 10 11 12 11 11 11 10 9 8 7 6 5 3 4 8 6 5 6 8 8 5 3 3 4 4 4 4 4 4 4 4 4 4 4 3 4 4
4 7 8 9 9 10 10 9 9 9 10 10 10 10 9 7 4 4 4 7 9 9 5 6 9 10 8 4 3 3 3 4 4 4 4 4 4 4 4 4 4 4 4 5
5 7 8 11 10 9 10 9 9 8 8 7 8 8 8 7 7 6 5 6 9 9 5 7 10 10 6 4 4 4 4 4 4 4 4 5 5 5 5 5 5 5 5 5
5 7 8 9 8 8 8 9 8 7 7 6 5 6 5 5 6 6 5 7 8 8 6 5 6 7 5 5 5 5 5 4 5 5 5 5 6 6 6 6 8 6 6 6
4 5 5 5 5 7 8 9 9 9 9 8 7 7 7 6 6 6 7 6 6 6 6 5 5 6 6 6 5 5 5 4 5 5 5 5 5 6 7 8 6 6 6 6
Wind_Direction
243 247 238 246 256 214 197 203 209 242 239 239 189 171 160 152 146 144 143 139 130 115 94 76 66 59 57 52 50 55 62 61 58 58 62 63 61 59 58 60 64 66 68 65
302 279 277 266 265 245 226 217 227 255 264 184 134 138 149 154 153 152 152 146 135 124 113 100 87 78 69 60 54 61 66 68 67 65 65 65 66 63 61 58 58 63 65 67
294 312 338 285 256 226 235 222 201 228 232 141 145 160 162 161 159 156 152 145 141 136 130 118 101 90 82 70 65 69 70 69 69 70 68 65 70 68 64 60 61 61 61 67
286 355 268 254 280 211 229 260 227 216 153 155 146 135 137 153 154 150 148 144 141 138 130 114 98 91 85 80 77 75 75 73 73 75 75 73 72 69 65 63 65 63 61 65
146 260 283 302 329 272 249 291 200 146 131 119 116 99 102 136 141 144 144 140 139 138 130 118 111 109 102 88 85 85 84 83 82 87 86 82 79 75 69 70 66 62 60 63
145 202 256 274 313 304 71 299 169 148 149 145 137 150 178 149 132 129 127 127 129 126 115 111 109 111 104 96 90 88 90 91 88 91 90 87 85 81 75 78 75 72 63 56
183 228 267 284 303 340 181 273 228 155 156 157 165 167 142 136 130 130 128 128 127 122 114 114 115 111 104 97 91 91 94 93 89 88 92 94 87 83 87 85 80 74 69 55
168 213 260 332 354 53 247 295 131 142 145 133 116 116 125 128 130 131 128 126 126 121 114 113 116 112 105 99 97 96 93 90 86 88 94 97 95 87 86 90 84 75 72 59
209 227 262 307 279 280 236 190 161 144 134 127 125 129 128 128 131 129 128 125 123 123 115 109 111 115 115 112 104 100 92 87 85 83 81 90 99 99 88 84 89 83 79 70
278 276 294 310 321 357 22 161 143 137 134 132 131 134 130 130 128 125 122 124 122 121 118 112 108 109 119 120 112 106 99 90 88 91 85 74 74 87 100 102 101 100 97 87
275 288 315 352 16 37 68 98 108 110 119 132 132 135 134 133 131 128 125 123 124 125 124 119 114 107 111 118 113 104 99 95 89 87 93 82 69 56 77 83 138 134 129 121
244 249 250 292 331 73 108 118 124 120 115 123 133 134 131 130 126 126 127 123 121 121 121 120 119 113 113 122 121 116 107 102 100 98 95 96 96 73 47 58 85 109 128 129
245 274 259 270 45 93 112 118 121 122 128 127 126 130 128 125 125 126 127 129 133 135 132 130 126 122 125 127 125 123 125 124 114 110 110 110 109 107 86 50 58 71 91 109
247 248 277 247 149 120 115 110 106 106 112 121 124 124 123 121 126 130 135 138 135 130 131 133 130 131 135 130 125 122 124 128 127 123 117 113 112 109 112 111 86 42 31 50
263 223 192 148 123 118 118 118 117 117 119 119 125 130 131 133 136 137 135 132 127 128 134 137 137 139 134 129 127 130 130 130 125 119 115 112 111 106 103 106 108 95 43 22
60 123 131 131 134 134 132 132 133 135 134 131 135 136 136 133 131 130 133 138 137 145 151 146 149 151 139 130 126 126 135 146 138 131 125 122 122 121 119 118 117 113 88 346
162 155 149 147 150 150 149 148 147 145 143 142 142 137 131 127 127 133 140 146 147 150 153 152 156 151 144 142 138 136 135 144 144 139 144 144 144 148 149 148 158 185 251 254
203 188 174 165 161 156 149 146 147 146 146 144 140 139 141 145 150 153 149 139 130 134 158 162 153 142 140 142 139 137 136 137 143 152 156 158 157 161 164 174 196 220 262 292
183 170 165 164 160 155 154 152 150 146 142 143 146 151 154 154 153 149 142 141 149 165 190 173 155 142 141 150 142 135 137 141 141 147 153 158 158 163 176 190 209 226 241 250
164 159 156 154 152 152 152 149 146 145 147 146 144 143 146 150 150 147 146 158 180 183 172 159 153 147 153 155 146 142 148 154 158 158 157 161 170 178 187 202 215 228 237 240
163 160 156 155 154 155 154 151 150 151 151 151 153 157 157 154 152 149 150 171 204 169 157 158 155 158 162 160 157 156 162 167 172 175 175 178 183 193 203 214 224 233 239 243
168 163 160 156 152 153 155 154 153 152 152 155 155 152 148 150 153 155 170 182 177 162 157 164 168 174 171 163 162 169 175 179 181 181 184 186 192 207 220 226 232 239 242 243
168 164 160 161 160 155 150 153 156 156 158 161 160 161 162 163 163 163 184 195 161 167 166 177 184 182 173 164 169 179 185 189 193 196 200 203 208 214 224 233 235 236 238 240
164 162 159 152 144 146 155 162 160 162 163 164 167 167 161 158 169 187 176 169 171 173 181 189 189 186 176 172 178 190 199 204 209 211 212 213 217 221 227 233 239 239 238 241
164 156 150 150 157 166 165 156 151 152 156 161 166 169 170 169 172 182 171 170 176 175 185 194 193 189 182 184 194 206 215 217 216 212 215 217 222 225 229 231 234 238 239 240
169 170 171 173 170 163 159 159 161 164 164 164 168 172 171 168 167 164 167 175 176 182 186 185 184 188 193 200 208 215 220 226 226 223 225 226 229 229 232 234 235 234 237 239
158 157 153 149 154 160 163 166 168 172 174 173 174 177 175 172 171 174 175 177 178 186 191 189 188 191 198 207 215 220 223 224 226 227 229 231 231 231 232 232 234 234 234 237